Location: Unspecified
(0.0000°N, 0.0000°E)
Time: 07:56:50
(UTC+02:00)

Cosmos 2369 Rocket - Visible Passes

Search period start: 20 September 2014 00:00
Search period end: 30 September 2014 00:00
Orbit: 831 x 851 km, 71.0° (Epoch: 18 September)

Date Brightness Start Highest point End Pass type
(mag) Time Alt. Az. Time Alt. Az. Time Alt. Az.
20 Sep 5.2 06:09:02 10° NE 06:11:41 13° ENE 06:14:20 10° ESE visible
20 Sep 5.7 20:39:35 10° WNW 20:39:50 10° WNW 20:40:04 10° WNW visible
21 Sep 5.2 05:54:14 10° NE 05:56:26 12° ENE 05:58:39 10° E visible
21 Sep 5.6 20:23:02 10° W 20:24:35 11° WNW 20:26:08 10° WNW visible
22 Sep 5.2 05:39:35 10° ENE 05:41:12 11° ENE 05:42:48 10° E visible
22 Sep 2.5 07:19:34 10° NNW 07:24:56 47° WSW 07:30:22 10° S visible
23 Sep 5.3 05:25:28 10° ENE 05:25:57 10° ENE 05:26:26 10° E visible
23 Sep 2.3 07:04:15 10° NNW 07:09:41 51° WSW 07:15:11 10° S visible
24 Sep 2.2 06:48:58 10° NNW 06:54:27 55° WSW 07:00:00 10° S visible
25 Sep 2.2 06:33:41 10° NNW 06:39:13 60° WSW 06:44:48 10° S visible
26 Sep 2.1 06:21:08 30° NNW 06:23:58 65° WSW 06:29:36 10° S visible
27 Sep 2.0 06:08:35 70° W 06:08:44 70° WSW 06:14:23 10° S visible
28 Sep 2.9 05:55:30 41° S 05:55:30 41° S 05:59:10 10° S visible
29 Sep 3.9 05:42:03 22° S 05:42:03 22° S 05:43:56 10° SSE visible
